Regional Weather Roundup
Issued by NWS

Home | Current Version | Previous Version | Graphics & Text | Print | Product List | Glossary On
Versions: 1 2 3 4 5 6 7 8 9 10 11 12 13 14 15 16 17 18 19 20 21 22 23 24 25 26 27 28 29 30 31 32 33 34 35 36 37 38 39 40 41 42 43 44 45 46 47 48 49 50
964
ASUS43 KLOT 262203
RWRIL

ILLINOIS REGIONAL WEATHER ROUNDUP
NATIONAL WEATHER SERVICE CHICAGO/ROMEOVILLE IL
500 PM CDT SUN MAR 26 2017

NOTE: "FAIR" INDICATES FEW OR NO CLOUDS BELOW 12,000 FEET WITH NO
SIGNIFICANT WEATHER AND/OR OBSTRUCTIONS TO VISIBILITY.

* THESE STATIONS ARE NOT UNDER NWS QUALITY CONTROL. THEY ALSO MAY NOT
  REPORT WEATHER SUCH AS PRECIPITATION OR FOG.

ILZ001-002-007-009-015-016-024-262300-
NORTHWEST ILLINOIS

CITY           SKY/WX    TMP DP  RH WIND       PRES   REMARKS
MOLINE         CLOUDY    52  49  89 SW13      29.84R FOG
STERLING*      CLOUDY    55  51  86 SW9       29.82S
SAVANNA*       CLOUDY    56  53  92 CALM      29.81S
$$

ILZ003-004-008-010-011-017-018-262300-
NORTH CENTRAL ILLINOIS

CITY           SKY/WX    TMP DP  RH WIND       PRES   REMARKS
ROCKFORD       DRIZZLE   55  52  89 SW8       29.82S
FREEPORT*      CLOUDY    53  53  98 CALM      29.82S FOG
ROCHELLE*      CLOUDY    55  53  93 SW9       29.82S
DE KALB*       CLOUDY    55  52  90 SW8       29.82S
$$

ILZ005-006-012>014-019>023-262300-
NORTHEAST ILLINOIS

CITY           SKY/WX    TMP DP  RH WIND       PRES   REMARKS
CHICAGO-OHARE  CLOUDY    59  50  72 SW10G18   29.81R
CHICAGO-MIDWAY CLOUDY    59  51  75 SW10      29.81S
AURORA         CLOUDY    57  51  80 SW8       29.82S
LANSING*       CLOUDY    59  53  81 SW12      29.83S
JOLIET*        CLOUDY    57  53  84 SW9       29.83S
WAUKEGAN       CLOUDY    52  52 100 E3        29.80S FOG
DUPAGE AIRPORT CLOUDY    56  53  90 SW10      29.81R
WHEELING       CLOUDY    59  52  77 SW10      29.82R
MORRIS*        CLOUDY    55  51  85 CALM      29.82S
$$

LMZ740>746-262300-
SOUTHERN LAKE MICHIGAN

STATION/POSITION SKY/WX   TEMP    WIND        PRES    VSBY  WAVE
                          AIR SEA DIR/SP/G                  HT/PER
                          (F)     (DEG/KT/KT) (MB)    (MI)  (FT/S)
HARRISON CRIB              60     210/ 18/ 20   N/A
BURNHAM HARBOR             59     170/  6/ 11   N/A
CALUMET HARBOR             59     190/ 10/ 14 1009.2R
BURNS HARBOR               52     270/  9/ 12 1010.2S
MICHIGAN CITY              51      40/  4/  4   N/A
$$

ILZ025>027-034>036-040-047-049-050-058-095>099-262300-
WEST-CENTRAL ILLINOIS

CITY           SKY/WX    TMP DP  RH WIND       PRES   REMARKS
QUINCY         CLOUDY    50  46  86 SW12      29.90R
GALESBURG*     CLOUDY    49  47  92 W10       29.86R
MACOMB*        CLOUDY    50  47  90 W13       29.90R
PITTSFIELD*    CLOUDY    54  48  82 W9        29.91S
$$

ILZ028>032-037-038-041>044-048-051>054-059>061-262300-
CENTRAL ILLINOIS

CITY           SKY/WX    TMP DP  RH WIND       PRES   REMARKS
PONTIAC        CLOUDY    55  53  92 SW13      29.85S
BLOOMINGTON    CLOUDY    52  50  93 SW13      29.87R
DECATUR        CLOUDY    55  49  80 SW16G22   29.88R
PEORIA         CLOUDY    51  48  89 W8        29.87R
SPRINGFIELD    CLOUDY    58  51  78 W14       29.88R
TAYLORVILLE    NOT AVBL
$$

ILZ033-039-045-046-055>057-062-063-262300-
EAST-CENTRAL ILLINOIS

CITY           SKY/WX    TMP DP  RH WIND       PRES   REMARKS
CHAMPAIGN      CLOUDY    58  48  69 SW15      29.87R
RANTOUL*       CLOUDY    59  52  77 W10       29.86R
MATTOON        CLOUDY    57  50  77 W13       29.89R
PARIS*         CLOUDY    59  50  71 SW13      29.88S
$$

ILZ079-100>102-262300-
SOUTHWEST ILLINOIS

CITY           SKY/WX    TMP DP  RH WIND       PRES   REMARKS
ALTON          CLOUDY    59  48  67 W10       29.91S
BELLEVILLE     PTSUNNY   61  51  71 SW6       29.90S
CAHOKIA*       CLOUDY    61  49  64 W6        29.91S
SPARTA*        CLOUDY    60  49  66 SW7       29.93S
$$

ILZ064>066-069>071-074>076-080>082-084>086-088>090-092>094-262300-
SOUTH-CENTRAL ILLINOIS

CITY           SKY/WX    TMP DP  RH WIND       PRES   REMARKS
CARBONDALE     PTSUNNY   61  49  64 SW12      29.93S
CAIRO*         PTSUNNY   64  53  65 SW13      29.94S
EFFINGHAM*     CLOUDY    57  50  78 SW10      29.93R
MARION         PTSUNNY   64  48  55 MISG      29.95R
MT. VERNON     CLOUDY    60  50  69 SW9       29.93R
CENTRALIA*     CLOUDY    59  52  78 W7        29.92S
SALEM*         CLOUDY    59  50  73 W10       29.93R
$$

ILZ067-068-072-073-078-083-087-091-262300-
SOUTHEAST ILLINOIS

CITY           SKY/WX    TMP DP  RH WIND       PRES   REMARKS
LAWRENCEVILLE  LGT RAIN  63  48  58 SW20      29.91R
FLORA*         CLOUDY    62  51  66 W13       29.92R
FAIRFIELD*     CLOUDY    61  49  64 SW6       29.92R
HARRISBURG*    SUNNY     63  49  60 W12       29.94R
ROBINSON*      MOSUNNY   59  48  67 W16G23    29.91R
CARMI*         CLOUDY    63  49  61 SW15      29.92S
$$

ABBREVIATIONS USED IN REMARKS
   TC - TEMPERATURE IN CELSIUS
  WCI - WIND CHILL INDEX
   HX - HEAT INDEX
  VSB - VISIBILITY
$$





USA.gov is the U.S. government's official web portal to all federal, state and local government web resources and services.